WD4IXD Weather Reports


time (UTC)temp
F
wind
direction
speed
knots
gust
knots
rain 1hr
in
rain 24hr
in
rain mn
in
humidity
%
barometer
mb
20240416053004 49 320 4.3 8.7 0.00 0.00 0.00 39 1006.0
20240416052503 49 3 0.9 2.6 0.00 0.00 0.00 39 1006.0
20240416052004 49 345 4.3 7.8 0.00 0.00 0.00 39 1006.0
20240416051503 50 7 2.6 5.2 0.00 0.00 0.00 38 1006.0
20240416051004 50 308 5.2 8.7 0.00 0.00 0.00 38 1006.0
20240416050503 50 309 6.1 11.3 0.00 0.00 0.00 38 1006.0
20240416050004 49 299 7.0 17.4 0.00 0.00 0.00 38 1006.0
20240416045504 49 316 7.0 14.8 0.00 0.00 0.00 39 1006.0
20240416045004 49 312 5.2 10.4 0.00 0.00 0.00 39 1006.1
20240416044504 49 306 5.2 15.6 0.00 0.00 0.00 39 1006.0
20240416044004 49 305 4.3 10.4 0.00 0.00 0.00 39 1006.1
20240416043504 49 321 4.3 10.4 0.00 0.00 0.00 38 1006.1
20240416043003 49 302 6.1 10.4 0.00 0.00 0.00 39 1006.2
20240416042504 49 330 6.1 13.0 0.00 0.00 0.00 38 1006.4
20240416042003 49 323 7.8 13.0 0.00 0.00 0.00 38 1006.4
20240416041503 49 330 7.0 11.3 0.00 0.00 0.00 38 1006.5
20240416041004 49 328 6.1 8.7 0.00 0.00 0.00 38 1006.5
20240416040504 49 333 6.1 10.4 0.00 0.00 0.00 38 1006.6
20240416040003 49 348 6.1 11.3 0.00 0.00 0.00 38 1006.7
20240416035504 49 357 7.0 11.3 0.00 0.00 0.00 37 1006.7
20240416035003 50 354 7.0 10.4 0.00 0.00 0.00 37 1006.8
20240416034504 50 347 6.1 13.0 0.00 0.00 0.00 36 1006.9
20240416034003 50 355 5.2 11.3 0.00 0.00 0.00 36 1006.9
20240416033504 50 327 5.2 10.4 0.00 0.00 0.00 35 1006.8
20240416033003 50 346 8.7 13.9 0.00 0.00 0.00 35 1006.7
20240416032503 51 345 5.2 11.3 0.00 0.00 0.00 35 1006.8
20240416032004 51 334 5.2 10.4 0.00 0.00 0.00 34 1006.8
20240416031503 51 332 5.2 10.4 0.00 0.00 0.00 34 1006.8
20240416031004 52 332 6.1 8.7 0.00 0.00 0.00 34 1006.8
20240416025007 52 319 7.0 11.3 0.00 0.00 0.00 34 1006.7
20240416024503 52 326 5.2 7.8 0.00 0.00 0.00 33 1006.6
20240416024004 53 307 4.3 7.8 0.00 0.00 0.00 33 1006.4
20240416023504 53 305 4.3 12.2 0.00 0.00 0.00 32 1006.2
20240416023003 53 313 7.8 13.0 0.00 0.00 0.00 32 1006.2
20240416022504 53 295 6.1 13.9 0.00 0.00 0.00 33 1006.2
20240416022003 53 304 7.0 13.9 0.00 0.00 0.00 32 1005.9
20240416021504 53 298 6.1 11.3 0.00 0.00 0.00 32 1006.0
20240416021003 54 300 8.7 17.4 0.00 0.00 0.00 33 1006.1
20240416020504 54 307 7.8 15.6 0.00 0.00 0.00 32 1006.1
20240416020003 54 310 8.7 15.6 0.00 0.00 0.00 32 1006.2
20240416015504 55 299 7.8 12.2 0.00 0.00 0.00 31 1006.2
20240416015003 55 305 8.7 15.6 0.00 0.00 0.00 31 1006.3
20240416014504 55 295 10.4 17.4 0.00 0.00 0.00 30 1006.2
20240416014003 56 298 13.0 21.7 0.00 0.00 0.00 30 1006.0
20240416013504 56 297 9.6 22.6 0.00 0.00 0.00 29 1005.9
20240416013004 56 295 11.3 17.4 0.00 0.00 0.00 29 1005.7
20240416012503 56 280 12.2 22.6 0.00 0.00 0.00 29 1005.6
20240416012004 57 296 10.4 19.1 0.00 0.00 0.00 28 1005.5
20240416011503 57 296 7.8 17.4 0.00 0.00 0.00 28 1005.5
20240416011003 57 294 8.7 15.6 0.00 0.00 0.00 28 1005.3
20240416010504 58 289 8.7 15.6 0.00 0.00 0.00 28 1005.2
20240416010003 58 295 11.3 17.4 0.00 0.00 0.00 27 1005.1
20240416005504 58 298 11.3 19.1 0.00 0.00 0.00 27 1005.1
20240416005003 59 296 6.1 10.4 0.00 0.00 0.00 27 1005.1
20240416004503 59 284 5.2 10.4 0.00 0.00 0.00 25 1005.1
20240416004003 60 302 11.3 17.4 0.00 0.00 0.00 22 1005.0
20240416003504 60 249 7.8 13.9 0.00 0.00 0.00 15 1004.9
20240416003004 61 270 13.9 26.1 0.00 0.00 0.00 14 1004.9
20240416002504 62 232 16.5 30.4 0.00 0.00 0.00 12 1004.4
20240416002004 62 206 10.4 18.2 0.00 0.00 0.00 10 1004.3
20240416001503 63 229 13.9 20.0 0.00 0.00 0.00 10 1004.0
20240416001004 63 214 13.9 19.1 0.00 0.00 0.00 9 1003.8
20240416000504 63 208 13.0 22.6 0.00 0.00 0.00 9 1003.7
20240416000004 64 225 17.4 24.3 0.00 0.00 0.00 9 1003.7
20240415235503 65 230 17.4 24.3 0.00 0.00 0.00 9 1003.6
20240415235004 65 199 14.8 28.7 0.00 0.00 0.00 10 1003.6
20240415234503 65 208 13.0 21.7 0.00 0.00 0.00 10 1003.5
20240415234003 66 183 13.0 21.7 0.00 0.00 0.00 10 1003.4
20240415233503 66 193 10.4 21.7 0.00 0.00 0.00 10 1003.4
20240415233004 66 185 12.2 24.3 0.00 0.00 0.00 10 1003.4
20240415232503 66 177 13.9 24.3 0.00 0.00 0.00 9 1003.4
20240415232003 66 210 10.4 17.4 0.00 0.00 0.00 9 1003.4
20240415231504 66 198 11.3 19.1 0.00 0.00 0.00 8 1003.4
20240415231003 66 211 14.8 26.1 0.00 0.00 0.00 9 1003.4
20240415230504 67 204 12.2 24.3 0.00 0.00 0.00 9 1003.4
20240415230004 67 202 13.9 26.1 0.00 0.00 0.00 8 1003.3
20240415225503 67 184 10.4 21.7 0.00 0.00 0.00 9 1003.3
20240415225004 67 181 13.9 24.3 0.00 0.00 0.00 9 1003.2
20240415224504 67 167 13.0 24.3 0.00 0.00 0.00 9 1003.1
20240415224003 67 185 12.2 22.6 0.00 0.00 0.00 9 1003.2
20240415223503 68 209 14.8 25.2 0.00 0.00 0.00 9 1003.1
20240415223004 68 212 13.9 22.6 0.00 0.00 0.00 8 1003.0
20240415222503 68 187 12.2 24.3 0.00 0.00 0.00 9 1003.0
20240415222004 68 193 13.9 21.7 0.00 0.00 0.00 8 1003.1
20240415221503 68 204 17.4 31.3 0.00 0.00 0.00 8 1002.9
20240415221004 68 217 15.6 30.4 0.00 0.00 0.00 9 1002.8
20240415220503 68 231 15.6 22.6 0.00 0.00 0.00 8 1002.9
20240415220004 69 218 14.8 22.6 0.00 0.00 0.00 8 1002.9
20240415215504 69 215 18.2 26.9 0.00 0.00 0.00 9 1002.9
20240415215003 69 214 16.5 25.2 0.00 0.00 0.00 9 1002.9
20240415214504 69 191 11.3 20.9 0.00 0.00 0.00 9 1003.0
20240415214003 69 202 15.6 24.3 0.00 0.00 0.00 8 1003.0
20240415213504 69 186 13.9 26.1 0.00 0.00 0.00 8 1003.0
20240415213003 69 246 17.4 26.9 0.00 0.00 0.00 8 1003.0
20240415212504 69 195 19.1 28.7 0.00 0.00 0.00 9 1003.2
20240415212004 69 228 15.6 22.6 0.00 0.00 0.00 8 1003.2
20240415211503 69 213 13.9 27.8 0.00 0.00 0.00 9 1003.4
20240415211004 69 221 20.0 28.7 0.00 0.00 0.00 8 1003.1
20240415210503 70 242 19.1 27.8 0.00 0.00 0.00 8 1003.2
20240415210004 70 197 14.8 28.7 0.00 0.00 0.00 7 1003.3
20240415205503 70 174 15.6 27.8 0.00 0.00 0.00 7 1003.4
20240415205003 70 177 20.0 31.3 0.00 0.00 0.00 7 1003.3
20240415204504 70 197 20.0 30.4 0.00 0.00 0.00 7 1003.3
20240415204004 69 195 15.6 22.6 0.00 0.00 0.00 7 1003.5
20240415203503 70 193 16.5 28.7 0.00 0.00 0.00 7 1003.5
20240415203005 70 190 19.1 32.2 0.00 0.00 0.00 6 1003.4
20240415202504 71 207 19.1 32.2 0.00 0.00 0.00 6 1003.3
20240415202004 72 215 13.0 21.7 0.00 0.00 0.00 7 1003.4
20240415201504 72 170 10.4 24.3 0.00 0.00 0.00 8 1003.5
20240415201003 72 182 16.5 30.4 0.00 0.00 0.00 8 1003.7
20240415200504 72 181 12.2 22.6 0.00 0.00 0.00 8 1003.6
20240415200004 71 181 13.0 24.3 0.00 0.00 0.00 8 1003.8
20240415195504 71 173 17.4 26.1 0.00 0.00 0.00 8 1003.7
20240415195003 71 193 14.8 33.0 0.00 0.00 0.00 8 1003.9
20240415194504 71 199 13.9 26.1 0.00 0.00 0.00 7 1004.0
20240415194004 71 198 17.4 26.9 0.00 0.00 0.00 6 1003.9
20240415193504 71 210 14.8 25.2 0.00 0.00 0.00 7 1003.9
20240415193004 72 199 21.7 32.2 0.00 0.00 0.00 8 1003.7
20240415192504 72 194 10.4 21.7 0.00 0.00 0.00 9 1003.7
20240415192004 72 193 13.9 21.7 0.00 0.00 0.00 7 1003.8
20240415191504 71 236 17.4 33.0 0.00 0.00 0.00 7 1003.8
20240415191004 72 209 15.6 28.7 0.00 0.00 0.00 7 1003.9
20240415190504 73 210 18.2 30.4 0.00 0.00 0.00 7 1003.8
20240415190004 73 204 16.5 22.6 0.00 0.00 0.00 6 1003.8
20240415185503 74 199 12.2 25.2 0.00 0.00 0.00 7 1003.8
20240415185004 73 191 11.3 22.6 0.00 0.00 0.00 8 1003.8
20240415184504 72 243 14.8 20.9 0.00 0.00 0.00 7 1003.8
20240415184004 72 194 10.4 22.6 0.00 0.00 0.00 8 1004.1
20240415183504 71 226 20.9 26.9 0.00 0.00 0.00 8 1004.1
20240415183003 72 238 19.1 24.3 0.00 0.00 0.00 8 1004.2
20240415182504 72 206 8.7 13.9 0.00 0.00 0.00 8 1004.5
20240415182004 71 225 12.2 20.9 0.00 0.00 0.00 9 1004.6
20240415181504 71 239 10.4 20.9 0.00 0.00 0.00 9 1004.7
20240415181003 71 221 13.9 22.6 0.00 0.00 0.00 9 1004.7
20240415180504 71 240 13.0 21.7 0.00 0.00 0.00 9 1004.7
20240415180003 71 243 13.0 21.7 0.00 0.00 0.00 10 1004.8
20240415175504 71 221 11.3 22.6 0.00 0.00 0.00 10 1005.0
20240415175004 71 208 10.4 18.2 0.00 0.00 0.00 10 1005.2
20240415174504 71 202 13.0 19.1 0.00 0.00 0.00 10 1005.4
20240415174004 70 221 10.4 20.0 0.00 0.00 0.00 11 1005.4
20240415173504 70 256 11.3 20.0 0.00 0.00 0.00 11 1005.4
20240415173004 70 271 12.2 17.4 0.00 0.00 0.00 11 1005.7
20240415172503 70 234 14.8 20.9 0.00 0.00 0.00 11 1005.7
20240415172004 69 220 10.4 15.6 0.00 0.00 0.00 12 1005.8
20240415171504 70 234 12.2 19.1 0.00 0.00 0.00 11 1006.0
20240415171004 70 237 16.5 21.7 0.00 0.00 0.00 11 1006.1
20240415170504 70 242 13.9 20.9 0.00 0.00 0.00 11 1006.2
20240415170004 70 194 9.6 13.9 0.00 0.00 0.00 11 1006.4
20240415165504 69 177 13.0 19.1 0.00 0.00 0.00 11 1006.5
20240415165003 69 168 10.4 20.0 0.00 0.00 0.00 11 1006.5
20240415164504 70 213 8.7 14.8 0.00 0.00 0.00 11 1006.6
20240415164004 69 206 10.4 14.8 0.00 0.00 0.00 10 1006.7
20240415163504 69 181 7.8 17.4 0.00 0.00 0.00 12 1006.9
20240415163004 69 165 10.4 17.4 0.00 0.00 0.00 11 1006.9
20240415162504 69 220 10.4 14.8 0.00 0.00 0.00 11 1006.9
20240415162003 69 167 7.8 17.4 0.00 0.00 0.00 10 1007.0
20240415161503 68 185 7.8 21.7 0.00 0.00 0.00 12 1007.0
20240415161003 69 166 10.4 17.4 0.00 0.00 0.00 10 1007.0
20240415160504 68 173 9.6 14.8 0.00 0.00 0.00 11 1007.0
20240415160004 68 185 7.8 13.0 0.00 0.00 0.00 12 1007.2
20240415155504 67 189 7.0 13.9 0.00 0.00 0.00 12 1007.3
20240415155004 67 171 12.2 21.7 0.00 0.00 0.00 11 1007.3
20240415154504 67 191 9.6 17.4 0.00 0.00 0.00 12 1007.3
20240415154004 67 227 13.0 18.2 0.00 0.00 0.00 14 1007.5
20240415153503 67 180 11.3 17.4 0.00 0.00 0.00 13 1007.5
20240415153003 66 197 10.4 20.0 0.00 0.00 0.00 13 1007.5
20240415152503 66 208 12.2 18.2 0.00 0.00 0.00 13 1007.5
20240415152003 66 216 12.2 22.6 0.00 0.00 0.00 14 1007.6
20240415151504 66 200 14.8 22.6 0.00 0.00 0.00 14 1007.5
20240415151004 65 210 16.5 25.2 0.00 0.00 0.00 15 1007.6
20240415150504 65 207 13.9 20.9 0.00 0.00 0.00 16 1007.7
20240415150003 65 237 14.8 19.1 0.00 0.00 0.00 15 1007.7
20240415145503 64 219 15.6 26.1 0.00 0.00 0.00 15 1007.6
20240415145004 63 213 7.8 11.3 0.00 0.00 0.00 17 1007.7
20240415144503 62 236 5.2 10.4 0.00 0.00 0.00 21 1007.7
20240415144004 62 207 4.3 7.8 0.00 0.00 0.00 21 1007.9
20240415143503 61 223 2.6 6.1 0.00 0.00 0.00 22 1008.0
20240415143004 61 194 0.9 2.6 0.00 0.00 0.00 23 1008.0
20240415142503 60 190 3.5 6.1 0.00 0.00 0.00 24 1008.3
20240415142004 59 159 2.6 5.2 0.00 0.00 0.00 24 1008.2
20240415141504 58 150 2.6 6.1 0.00 0.00 0.00 26 1008.2
20240415141003 57 128 2.6 6.1 0.00 0.00 0.00 27 1008.3
20240415140504 55 111 5.2 7.0 0.00 0.00 0.00 28 1008.3
20240415140004 54 114 5.2 8.7 0.00 0.00 0.00 31 1008.3
20240415135504 52 112 5.2 10.4 0.00 0.00 0.00 33 1008.3
20240415135003 50 110 6.1 8.7 0.00 0.00 0.00 34 1008.4
20240415134503 48 103 7.8 8.7 0.00 0.00 0.00 39 1008.4
20240415134004 47 108 6.1 8.7 0.00 0.00 0.00 39 1008.5
20240415133503 47 120 5.2 7.8 0.00 0.00 0.00 39 1008.5
20240415133004 47 144 5.2 8.7 0.00 0.00 0.00 38 1008.4
20240415132503 45 124 6.1 10.4 0.00 0.00 0.00 41 1008.4
20240415132004 44 155 2.6 7.0 0.00 0.00 0.00 43 1008.4
20240415131503 43 145 4.3 7.8 0.00 0.00 0.00 42 1008.4
20240415131004 44 153 4.3 7.8 0.00 0.00 0.00 40 1008.3
20240415130503 44 122 4.3 8.7 0.00 0.00 0.00 41 1008.2
20240415130004 43 148 5.2 10.4 0.00 0.00 0.00 42 1008.3
20240415125503 41 137 5.2 10.4 0.00 0.00 0.00 44 1008.2
20240415125004 42 147 8.7 11.3 0.00 0.00 0.00 43 1008.3
20240415124503 42 151 8.7 11.3 0.00 0.00 0.00 41 1008.3
20240415124004 43 158 6.1 10.4 0.00 0.00 0.00 39 1008.3
20240415123503 44 151 5.2 7.8 0.00 0.00 0.00 38 1008.3
20240415123004 43 156 3.5 7.0 0.00 0.00 0.00 38 1008.4
20240415122503 43 143 4.3 7.0 0.00 0.00 0.00 39 1008.4
20240415122004 43 149 6.1 10.4 0.00 0.00 0.00 38 1008.4
20240415121503 43 150 6.1 12.2 0.00 0.00 0.00 38 1008.4
20240415121004 44 145 10.4 14.8 0.00 0.00 0.00 36 1008.5
20240415120504 45 113 4.3 7.8 0.00 0.00 0.00 35 1008.4
20240415120003 46 127 6.1 10.4 0.00 0.00 0.00 34 1008.4
20240415115504 46 153 5.2 10.4 0.00 0.00 0.00 32 1008.5
20240415115003 46 116 4.3 7.8 0.00 0.00 0.00 33 1008.6
20240415114504 46 133 5.2 7.8 0.00 0.00 0.00 33 1008.6
20240415114004 46 134 4.3 7.8 0.00 0.00 0.00 32 1008.6
20240415113504 46 141 2.6 5.2 0.00 0.00 0.00 33 1008.6
20240415113003 46 150 4.3 7.0 0.00 0.00 0.00 33 1008.7
20240415112504 46 150 4.3 8.7 0.00 0.00 0.00 33 1008.7
20240415112004 46 155 6.1 7.8 0.00 0.00 0.00 32 1008.8
20240415111503 47 113 4.3 8.7 0.00 0.00 0.00 32 1008.6
20240415111004 48 149 6.1 8.7 0.00 0.00 0.00 30 1008.7
20240415110504 49 154 3.5 7.0 0.00 0.00 0.00 28 1008.7
20240415110004 51 156 5.2 8.7 0.00 0.00 0.00 26 1008.7
20240415105503 52 146 6.1 10.4 0.00 0.00 0.00 24 1008.7
20240415105004 52 148 7.0 10.4 0.00 0.00 0.00 25 1008.7
20240415104503 52 156 7.8 10.4 0.00 0.00 0.00 24 1008.7
20240415104004 52 150 8.7 12.2 0.00 0.00 0.00 25 1008.7
20240415103503 51 148 5.2 7.8 0.00 0.00 0.00 25 1008.8
20240415103004 50 112 5.2 7.8 0.00 0.00 0.00 27 1008.7
20240415102503 50 122 2.6 6.1 0.00 0.00 0.00 27 1008.8
20240415102004 51 124 1.7 2.6 0.00 0.00 0.00 28 1008.8
20240415101504 51 142 0.9 2.6 0.00 0.00 0.00 29 1008.9
20240415101004 51 127 3.5 7.0 0.00 0.00 0.00 27 1008.8
20240415100504 51 76 2.6 6.1 0.00 0.00 0.00 28 1008.8
20240415100003 51 115 3.5 12.2 0.00 0.00 0.00 29 1008.8
20240415095504 52 124 3.5 11.3 0.00 0.00 0.00 26 1009.0
20240415095003 52 243 0.9 4.3 0.00 0.00 0.00 26 1008.9
20240415094504 51 249 0.9 2.6 0.00 0.00 0.00 27 1008.9
20240415094004 50 207 1.7 2.6 0.00 0.00 0.00 29 1009.1
20240415093504 50 128 0.0 2.6 0.00 0.00 0.00 31 1009.0
20240415093004 50 174 0.9 4.3 0.00 0.00 0.00 32 1009.2
20240415092503 50 155 3.5 5.2 0.00 0.00 0.00 33 1009.1
20240415092004 51 146 2.6 4.3 0.00 0.00 0.00 32 1009.1
20240415091503 54 206 0.9 2.6 0.00 0.00 0.00 27 1009.0
20240415091004 54 93 0.9 7.8 0.00 0.00 0.00 26 1009.1
20240415090503 53 103 7.8 8.7 0.00 0.00 0.00 27 1009.1
20240415090004 53 119 7.8 10.4 0.00 0.00 0.00 28 1009.2
20240415085503 53 151 4.3 7.0 0.00 0.00 0.00 28 1009.1
20240415085004 52 109 5.2 7.8 0.00 0.00 0.00 31 1009.2
20240415084504 52 105 6.1 8.7 0.00 0.00 0.00 32 1009.3
20240415084003 52 151 5.2 7.8 0.00 0.00 0.00 32 1009.3
20240415083504 51 119 4.3 10.4 0.00 0.00 0.00 34 1009.4
20240415083003 51 147 7.0 10.4 0.00 0.00 0.00 34 1009.4
20240415082504 52 138 8.7 13.0 0.00 0.00 0.00 35 1009.5
20240415082003 52 124 5.2 8.7 0.00 0.00 0.00 34 1009.7
20240415081504 52 128 6.1 10.4 0.00 0.00 0.00 34 1009.6
20240415081003 53 113 7.8 12.2 0.00 0.00 0.00 33 1009.7
20240415080504 53 114 7.0 10.4 0.00 0.00 0.00 33 1009.8
20240415080004 54 118 6.1 8.7 0.00 0.00 0.00 32 1009.8
20240415075503 54 126 4.3 8.7 0.00 0.00 0.00 32 1009.8
20240415075004 54 132 4.3 7.8 0.00 0.00 0.00 32 1009.9
20240415074503 54 130 6.1 10.4 0.00 0.00 0.00 32 1009.9
20240415074004 53 124 4.3 8.7 0.00 0.00 0.00 32 1010.1
20240415073505 54 117 4.3 7.8 0.00 0.00 0.00 32 1010.2
20240415073004 54 137 5.2 7.8 0.00 0.00 0.00 32 1010.2
20240415072504 55 154 4.3 7.8 0.00 0.00 0.00 31 1010.4
20240415072004 55 125 2.6 7.0 0.00 0.00 0.00 31 1010.4
20240415071504 55 156 4.3 7.8 0.00 0.00 0.00 31 1010.5
20240415071004 55 152 5.2 7.8 0.00 0.00 0.00 31 1010.5
20240415070504 55 150 4.3 6.1 0.00 0.00 0.00 30 1010.6
20240415070004 57 158 5.2 8.7 0.00 0.00 0.00 29 1010.6
20240415065503 57 148 5.2 10.4 0.00 0.00 0.00 29 1010.6
20240415065004 56 156 5.2 8.7 0.00 0.00 0.00 29 1010.8
20240415064504 56 158 5.2 7.8 0.00 0.00 0.00 29 1010.8
20240415064004 57 159 2.6 5.2 0.00 0.00 0.00 28 1010.9
20240415063504 58 169 4.3 8.7 0.00 0.00 0.00 27 1010.9
20240415063004 59 149 3.5 8.7 0.00 0.00 0.00 27 1010.8
20240415062503 58 146 5.2 8.7 0.00 0.00 0.00 27 1010.9
20240415062004 58 175 0.9 2.6 0.00 0.00 0.00 28 1011.0
20240415061503 58 248 0.9 2.6 0.00 0.00 0.00 27 1011.1
20240415061003 59 269 2.6 5.2 0.00 0.00 0.00 27 1011.1
20240415060504 60 295 3.5 10.4 0.00 0.00 0.00 25 1011.1
20240415060004 59 125 4.3 10.4 0.00 0.00 0.00 25 1011.0
20240415055503 60 155 1.7 2.6 0.00 0.00 0.00 25 1011.0
20240415055004 61 206 2.6 10.4 0.00 0.00 0.00 24 1011.1
20240415054503 61 149 10.4 13.9 0.00 0.00 0.00 24 1011.0
20240415054003 61 152 8.7 13.9 0.00 0.00 0.00 24 1011.0
20240415053504 61 147 10.4 14.8 0.00 0.00 0.00 24 1011.0